{"data":{"norad_id":62925,"epoch":"2026-09-21T06:22:31.652832Z","epoch_age_seconds":102108,"freshness":"FRESH","line1":"1 62925U 25027U   26264.26564413  .00013493  00000+0  49891-3 0  9994","line2":"2 62925  42.9999 104.3110 0001112 272.6066  87.4659 15.27582758 91450","mean_motion":15.27582758,"eccentricity":0.0001112,"inclination_deg":42.9999,"raan_deg":104.311,"arg_perigee_deg":272.6066,"mean_anomaly_deg":87.4659,"bstar":0.00049891,"rev_number":9145,"period_min":94.266578518164,"perigee_km":482.27787463235,"apogee_km":483.80380058344,"semimajor_km":6861.1778376079,"source":"CELESTRAK","updated_at":"2026-09-22T09:00:49.710320Z"}}